Wind_Speed
49 49 50 50 50 51 51 51 52 52 53 54 55 55 56 57 57 58 60 61 63 65 67 69 73 76 79 80 80 80 80 79 77 75 76 78 75 74 74 75 74 73 73 72 71 71 70 69 68 67 66 66 66 66 65 63 62 64 65 66 65 63 61 59 58 57 56 56 55 53 53 53 54 57 58 59 58 58 59 57 54 52 52 51 52 52 53 52
52 52 52 53 53 53 54 54 54 54 55 55 56 56 57 58 58 59 59 60 61 63 65 67 70 72 76 79 80 81 80 80 78 77 79 77 72 73 75 74 73 73 73 72 72 71 69 68 67 66 66 65 65 64 63 62 62 64 65 65 64 61 60 59 58 57 57 55 54 53 53 53 55 57 59 59 58 59 59 57 55 54 54 53 53 54 54 54
54 54 55 55 55 55 56 56 56 56 57 57 57 58 58 59 60 60 60 60 61 62 64 66 68 70 72 76 79 81 81 80 79 81 81 75 72 74 74 74 74 73 73 72 71 70 68 67 66 66 65 64 63 63 62 61 62 64 65 64 62 60 59 58 57 57 56 55 54 54 54 54 56 57 59 59 58 60 60 58 57 57 56 56 55 56 56 56
57 57 57 56 57 57 57 57 57 57 58 58 58 59 59 60 61 61 61 61 62 62 64 65 67 69 70 73 76 80 82 81 81 84 82 76 74 76 74 74 74 73 72 71 71 69 67 66 65 66 65 64 63 62 61 62 63 64 64 63 61 59 58 57 57 56 55 55 55 55 55 56 57 58 59 59 60 61 61 59 58 58 58 57 58 59 59 58
59 59 59 59 59 58 58 57 57 57 57 57 58 58 59 60 61 62 62 63 63 64 65 66 67 68 69 71 73 76 80 82 84 86 83 78 77 77 75 74 74 73 72 71 70 68 66 66 66 65 64 63 62 62 62 63 64 64 63 61 59 58 57 57 56 55 55 56 56 56 56 57 58 59 60 60 62 62 61 60 59 58 59 59 61 63 61 59
61 62 62 62 61 61 60 59 59 58 58 57 57 58 59 60 61 62 63 64 65 66 66 67 67 67 68 70 72 74 76 80 85 87 84 82 81 79 76 75 74 73 71 71 70 68 66 66 65 65 64 63 62 63 63 63 63 62 61 59 58 58 57 57 56 56 56 56 56 56 57 58 58 59 61 62 63 63 62 61 60 60 60 62 64 64 61 60
64 64 64 64 64 64 63 62 61 60 59 59 58 58 59 59 60 61 62 64 66 67 68 68 68 68 68 69 71 72 73 77 84 87 86 84 84 82 79 76 75 73 72 71 69 68 67 66 65 65 64 63 63 64 62 61 61 61 59 58 58 58 57 57 56 56 56 56 56 57 58 58 58 60 62 63 64 63 62 61 61 60 60 63 65 63 61 61
66 66 66 66 66 66 66 65 64 63 62 61 60 60 60 60 60 60 62 64 66 68 68 69 69 69 69 69 70 71 72 76 80 83 86 85 85 85 82 79 77 74 73 72 70 68 67 66 66 66 65 64 65 63 61 60 60 60 58 58 58 57 57 57 57 56 56 57 57 58 59 58 59 60 62 64 64 63 62 61 61 59 60 64 65 63 62 62
68 68 68 68 68 68 68 68 67 66 65 64 63 63 62 62 61 60 61 63 66 68 69 70 70 71 70 70 70 70 73 76 76 78 84 86 87 86 85 83 80 77 74 72 70 68 66 66 67 66 65 65 64 61 59 59 60 60 59 58 58 57 57 57 56 56 57 57 59 60 60 59 59 59 61 63 64 63 61 61 60 59 60 64 64 62 62 62
71 71 70 70 70 70 70 69 69 68 68 67 66 65 64 63 62 62 62 63 65 68 70 70 71 71 71 71 71 71 74 74 74 76 80 84 88 88 87 85 83 80 76 73 70 69 69 68 68 66 65 64 61 59 59 60 61 60 59 58 58 58 57 57 57 57 58 58 60 61 61 60 59 59 61 62 63 62 61 61 60 59 61 63 61 61 61 61
73 73 73 72 72 72 71 71 71 70 70 69 68 67 66 65 65 63 63 64 65 68 70 71 71 71 72 72 72 74 75 73 72 75 77 80 86 89 88 87 85 82 79 75 72 72 71 70 68 66 65 63 60 59 59 61 62 60 59 58 58 58 58 58 58 59 58 59 61 62 60 59 59 59 60 61 62 61 61 60 59 59 61 61 59 60 60 60
75 75 75 74 74 73 73 72 72 72 71 71 70 69 68 68 67 66 65 65 66 69 70 71 71 72 72 72 73 77 76 72 71 73 75 78 83 88 90 88 87 85 81 78 76 75 73 70 68 66 64 62 60 59 60 62 61 60 59 58 58 59 58 59 59 59 59 60 62 61 59 60 60 60 59 60 60 60 59 59 59 61 61 59 59 59 59 59
77 77 77 76 76 75 74 74 73 73 73 72 72 71 71 70 69 68 67 67 68 69 70 71 71 72 71 72 75 77 76 74 72 72 75 77 80 85 90 90 89 86 84 81 79 77 74 70 68 66 63 61 60 60 61 62 61 60 59 58 59 59 59 59 59 59 59 61 62 61 60 61 61 59 58 58 59 58 58 58 60 61 61 59 59 58 58 58
79 79 78 78 78 77 76 75 75 75 74 74 74 73 73 72 71 70 69 68 69 70 70 71 72 72 71 73 76 76 75 76 76 76 76 77 79 81 87 91 90 88 86 84 81 78 73 70 68 66 64 62 61 61 62 62 62 60 59 59 59 59 60 60 59 59 60 61 62 62 62 62 61 60 58 58 58 58 58 58 60 61 60 59 58 57 57 57
79 79 79 79 79 78 78 77 77 77 76 76 75 75 75 74 73 72 70 69 70 70 70 71 72 72 71 74 75 74 75 78 81 80 76 76 78 80 84 89 91 89 87 85 82 78 73 69 67 66 65 64 63 63 63 62 61 60 59 59 60 60 60 59 59 60 61 62 63 62 62 61 61 60 58 57 57 57 57 57 59 59 58 57 56 57 56 55
77 78 79 79 79 79 79 79 79 78 78 77 77 77 76 75 74 72 70 70 70 70 70 71 72 72 72 75 74 72 76 81 83 81 75 75 77 79 81 86 90 90 88 85 82 78 72 69 68 68 67 66 65 64 63 61 60 60 60 61 60 59 59 59 59 61 62 63 63 62 61 60 59 58 56 56 55 55 54 55 56 56 57 56 56 55 54 54
73 75 77 78 78 79 79 79 79 79 79 78 78 77 76 75 73 71 70 70 70 69 70 71 72 71 72 73 72 73 78 82 83 80 76 75 76 78 79 82 88 90 88 85 81 77 72 69 69 69 69 67 66 64 61 60 61 61 62 61 60 59 59 59 60 60 61 62 61 61 60 59 57 56 54 54 54 54 53 52 52 54 56 56 55 54 53 52
71 72 74 76 77 78 78 78 78 78 78 77 77 75 75 74 72 71 70 69 69 69 70 71 72 71 72 73 72 75 79 81 82 80 77 75 74 76 78 81 85 88 87 83 79 76 72 70 70 70 69 66 64 61 60 62 64 64 62 61 59 59 59 59 59 59 60 62 61 60 60 59 58 56 54 53 53 53 52 50 51 53 54 54 52 52 51 51
69 71 72 73 74 75 76 76 76 76 76 75 74 73 73 72 71 70 69 67 67 69 71 72 72 72 74 74 73 75 78 79 79 78 77 74 73 75 77 79 82 85 85 82 79 76 73 71 70 68 66 64 62 61 64 66 66 63 61 60 58 58 59 59 60 60 61 62 62 61 59 58 57 55 54 53 53 52 51 50 50 51 51 51 50 49 49 48
67 69 70 71 72 72 73 74 74 74 73 73 72 72 72 71 69 67 66 66 68 70 72 72 72 73 74 74 74 75 76 77 77 77 77 75 73 75 76 77 79 82 83 81 78 75 73 71 68 66 65 64 64 66 68 67 64 61 60 59 58 58 60 61 61 60 60 61 62 60 58 56 54 52 52 52 52 51 51 50 49 49 49 49 48 46 46 45
63 65 67 69 70 71 72 72 72 72 72 71 71 71 70 68 66 65 66 67 69 70 72 73 73 73 73 72 73 74 74 75 76 76 77 75 73 74 75 75 76 79 81 80 78 75 72 69 66 66 67 67 68 69 68 64 62 60 59 58 58 59 61 61 60 58 58 60 61 58 55 54 51 48 48 50 50 50 50 50 48 47 47 46 45 44 44 45
59 62 65 67 68 69 70 70 70 70 70 70 69 67 65 64 64 65 67 68 70 71 72 72 70 69 69 68 69 70 72 74 75 76 76 74 72 72 73 73 75 78 80 80 77 73 69 66 67 69 69 69 69 68 65 62 61 59 58 58 59 60 61 61 59 57 58 59 58 55 53 52 50 47 45 46 48 49 50 49 48 46 43 42 43 44 46 48
56 59 61 64 66 67 67 67 67 68 68 67 65 63 63 63 65 66 68 69 69 68 67 65 64 64 64 64 66 68 71 74 76 76 74 73 72 71 71 72 75 78 79 78 76 71 67 68 70 71 70 68 67 66 63 61 60 59 59 59 60 61 61 60 58 57 57 56 56 54 53 51 50 48 45 44 45 46 48 48 46 43 42 42 43 46 49 51
54 56 58 61 62 63 63 64 65 65 64 62 61 62 62 64 65 67 68 67 65 62 60 59 58 58 59 62 65 68 71 74 75 75 73 72 71 70 70 72 75 77 76 76 74 70 70 73 74 72 68 66 66 65 63 61 59 58 59 59 61 61 60 59 58 57 56 55 55 54 53 52 50 50 48 46 46 45 44 45 44 42 43 44 46 49 52 53
53 54 56 57 58 59 60 61 62 61 60 60 61 62 64 65 66 66 63 60 57 55 54 53 52 54 56 59 63 67 68 70 72 72 71 71 70 69 70 72 74 74 75 74 72 71 74 76 73 68 66 64 64 63 61 60 59 58 59 61 62 61 60 59 58 57 56 56 56 54 53 52 49 51 53 48 46 46 44 43 43 43 44 47 50 52 53 54
52 53 54 55 56 57 58 59 59 59 60 61 63 64 64 64 63 59 55 53 51 50 50 50 51 53 52 55 61 62 63 66 69 68 68 69 70 70 70 71 73 73 73 73 72 74 76 73 68 66 64 64 63 62 60 59 58 58 59 61 61 60 59 58 57 57 56 56 55 54 53 51 48 50 53 46 43 46 46 45 45 45 47 50 52 53 54 55
52 52 53 54 55 56 58 59 58 59 61 63 63 62 61 59 56 52 50 49 48 48 49 49 49 50 50 54 59 59 59 63 65 65 66 67 68 69 69 71 72 73 72 71 71 73 73 69 66 65 64 62 61 61 59 58 57 57 59 60 60 60 58 58 57 57 56 55 54 53 52 49 45 49 53 47 42 42 44 45 46 47 49 50 51 52 53 55
52 53 54 55 56 57 58 58 59 60 61 60 58 56 54 52 50 48 47 48 49 50 51 50 49 52 55 57 57 59 63 64 64 65 66 66 66 66 67 70 71 72 71 68 69 71 69 66 65 64 62 61 60 60 59 57 56 58 60 61 60 59 58 57 56 55 54 52 51 50 48 47 47 51 54 47 41 40 40 43 45 47 49 50 51 53 55 56
53 54 54 55 56 57 58 57 57 56 55 53 51 49 48 46 46 46 47 48 50 53 55 55 54 56 58 56 55 60 63 64 65 67 66 65 65 65 67 69 71 70 68 68 71 71 67 66 66 64 62 61 61 61 58 56 56 58 60 60 59 58 57 55 54 52 51 49 47 44 45 50 51 51 50 45 42 41 41 43 45 47 48 50 52 54 55 56
53 54 54 55 56 56 55 53 51 49 48 46 44 43 42 43 44 45 48 50 53 56 58 59 60 59 57 54 55 59 60 61 63 64 64 64 65 66 67 69 70 69 68 69 70 68 66 66 64 60 60 61 61 60 57 56 56 57 58 58 58 57 56 53 51 48 46 46 44 42 46 51 50 47 46 44 43 42 42 43 45 47 49 51 53 54 55 56
52 53 53 54 53 52 49 46 44 43 42 40 39 39 40 42 44 47 50 52 55 56 57 58 58 56 54 55 57 58 59 60 60 60 61 62 63 64 65 66 66 65 66 67 67 65 63 62 59 57 58 59 58 56 54 54 54 54 55 56 56 55 53 51 47 44 43 43 42 43 47 49 46 45 45 45 45 46 45 46 48 50 51 52 53 55 56 57
51 51 51 51 49 45 42 40 38 37 36 36 36 38 41 43 45 49 52 53 55 56 56 56 56 55 55 57 58 58 58 59 58 58 60 60 60 61 62 63 62 61 62 64 64 63 61 58 57 57 57 56 55 53 52 52 52 52 54 55 55 52 49 47 44 42 43 43 42 45 48 48 46 46 45 47 49 49 49 49 50 51 51 52 52 53 55 55
49 49 48 46 42 38 36 35 34 34 34 35 37 40 42 45 49 53 54 54 54 54 55 56 56 56 56 56 56 55 56 57 58 59 60 60 61 61 62 62 61 60 62 64 63 60 59 58 57 57 56 54 52 51 50 50 50 51 53 54 53 49 45 43 42 43 44 44 44 47 47 45 45 45 45 47 49 49 49 48 48 50 52 51 50 50 50 50
46 45 43 40 35 33 33 32 32 33 35 37 39 42 46 50 54 56 56 54 52 52 53 55 54 55 55 55 55 54 54 55 57 58 59 59 60 60 61 61 60 60 63 64 61 58 57 56 56 55 54 52 50 50 50 50 51 52 53 54 51 47 44 44 44 44 44 46 49 50 46 43 44 45 46 47 48 48 47 45 46 50 51 49 48 47 47 48
43 41 37 33 31 30 30 30 32 34 36 38 42 46 50 54 56 56 55 53 51 52 53 54 54 55 55 55 55 55 55 57 57 57 57 58 59 59 59 60 60 61 62 61 58 57 56 55 55 54 53 51 51 51 51 52 53 53 53 52 49 45 44 45 45 45 46 47 50 49 45 43 44 44 44 44 44 44 44 43 43 45 46 46 45 46 49 52
39 35 31 29 28 29 29 30 33 36 39 42 46 51 55 57 55 55 54 53 52 53 53 53 54 55 55 55 54 55 57 58 59 58 58 58 59 59 59 60 61 61 62 60 58 57 56 56 56 54 53 52 52 53 53 54 54 53 51 49 46 44 45 45 44 45 45 45 45 44 42 42 42 42 43 42 42 42 42 42 41 42 45 47 50 52 53 53
34 30 27 27 28 28 30 32 36 40 43 48 54 58 59 57 55 54 54 54 54 53 53 54 55 55 55 54 54 55 55 56 56 57 57 58 58 58 58 59 59 60 61 60 59 58 57 56 56 54 52 53 53 53 53 52 51 50 47 46 44 43 44 44 42 42 42 42 42 42 42 42 42 42 42 42 42 42 42 41 42 46 49 51 53 53 52 49
29 26 26 27 28 30 33 36 41 44 49 55 59 60 59 57 55 55 54 53 53 52 52 53 55 56 56 55 54 54 53 54 54 55 55 55 56 56 56 57 58 59 60 60 58 57 57 56 55 53 53 53 53 52 51 50 49 47 46 45 44 42 42 41 39 39 40 42 42 42 42 42 42 41 41 40 40 39 39 39 41 45 47 48 49 48 46 45
25 25 26 28 30 33 36 41 45 49 54 59 60 59 57 56 55 55 53 52 52 51 51 52 53 54 55 55 54 52 52 53 54 54 54 55 55 55 55 56 57 58 58 57 56 56 56 55 54 54 54 54 53 51 50 49 48 47 46 44 42 41 40 39 39 40 41 42 42 42 41 41 41 40 39 38 37 37 38 40 42 44 44 45 45 43 42 42
24 25 27 30 33 36 40 45 49 54 58 60 59 58 57 55 54 54 53 51 51 51 51 52 52 53 53 53 53 52 52 53 54 55 55 55 55 56 56 56 57 57 56 55 55 55 55 54 53 53 54 53 51 50 49 48 47 46 45 43 41 40 39 38 39 40 41 41 40 39 38 38 39 38 36 35 36 38 39 41 42 42 42 43 42 40 39 40
24 27 30 34 37 40 44 48 53 58 60 60 58 56 55 53 52 52 51 50 50 50 51 51 52 52 52 52 53 53 53 53 54 54 53 53 55 56 57 57 57 57 55 55 54 53 53 53 53 53 53 52 50 49 49 47 47 46 44 42 41 39 39 39 39 39 39 38 37 36 35 36 36 35 35 36 38 39 40 41 41 41 41 41 39 38 38 38
26 29 33 37 40 43 47 52 58 61 60 58 55 53 52 51 50 50 50 49 49 49 51 51 51 51 50 51 52 53 53 53 52 51 51 52 54 55 56 57 56 56 55 55 55 54 54 54 53 53 54 52 49 50 49 48 47 45 42 41 40 39 38 37 36 37 37 35 34 34 34 34 35 36 37 38 40 40 41 41 41 40 39 39 38 38 38 38
29 34 37 40 43 45 48 53 58 60 58 55 53 50 50 50 50 50 49 49 50 50 51 51 50 50 49 50 52 53 52 51 51 51 51 52 53 54 55 56 55 55 55 55 55 55 55 55 54 54 54 51 50 50 49 48 46 43 41 39 38 38 37 36 36 36 36 35 34 34 35 35 36 38 39 40 42 42 42 41 41 40 39 39 39 39 39 38
34 38 40 43 45 47 50 53 56 57 56 53 51 50 51 52 52 51 50 50 50 50 50 49 50 51 51 51 52 53 52 51 51 51 52 52 52 53 54 54 54 54 54 54 54 54 55 55 55 55 54 52 51 50 49 47 44 41 38 38 38 38 38 37 38 38 37 36 36 36 37 38 38 40 41 43 44 44 43 42 41 40 40 41 41 40 40 39
37 40 43 46 48 49 51 54 56 55 54 52 51 51 52 52 52 51 51 50 50 49 48 49 50 52 51 51 51 51 51 51 52 52 53 54 54 54 53 53 53 53 53 54 54 55 55 55 55 55 53 52 52 50 48 47 44 40 38 38 38 38 39 39 40 40 38 38 38 39 40 40 41 42 43 44 46 46 45 43 42 41 41 42 43 41 41 40
40 42 45 48 50 51 53 54 55 54 52 51 49 49 50 50 50 50 50 49 49 49 49 50 51 51 50 50 49 49 50 51 52 53 54 55 56 56 56 56 55 55 55 55 55 55 55 55 56 55 54 53 53 51 49 48 45 42 41 41 41 41 42 42 42 42 41 41 42 42 43 43 44 44 45 46 48 47 45 44 43 42 42 43 43 42 41 40
42 45 48 51 51 52 52 53 53 52 51 49 46 45 46 48 48 48 48 48 48 49 49 49 49 49 49 49 49 49 50 51 51 53 54 55 56 57 57 57 58 57 57 57 57 56 56 56 56 56 55 54 53 51 50 49 47 44 44 44 44 45 45 45 45 45 45 45 45 45 46 46 46 47 48 49 49 48 47 45 44 43 43 43 42 42 41 39
44 48 52 54 53 52 51 49 49 49 48 45 43 42 43 45 46 47 47 48 48 49 49 48 48 49 49 50 50 50 51 51 52 53 54 55 56 57 57 57 58 58 58 58 58 58 58 57 57 57 56 54 53 52 51 50 48 46 45 46 46 47 48 47 48 48 48 48 48 48 48 48 49 50 50 50 50 50 48 47 45 44 43 42 42 42 41 38
46 49 53 55 54 52 49 47 48 48 46 44 42 42 44 45 47 48 48 49 50 50 49 48 48 49 50 50 51 51 52 53 54 54 54 55 56 57 58 58 59 59 59 59 59 59 58 58 57 57 56 55 55 54 53 52 50 48 48 48 49 49 49 50 50 50 50 50 50 49 49 50 51 52 51 51 52 52 50 48 46 45 43 42 42 42 40 37
48 50 54 55 54 52 49 48 48 48 47 46 45 46 48 49 49 49 49 50 50 50 48 47 48 48 49 49 49 50 52 53 55 55 56 56 57 58 59 60 60 60 60 60 60 59 59 58 57 57 57 57 57 56 55 54 53 51 50 51 52 52 52 52 53 52 52 52 52 52 52 53 53 53 53 54 54 54 51 49 47 44 42 42 42 41 38 36
49 50 53 55 55 53 51 50 50 50 50 50 50 51 51 50 48 46 46 48 48 48 47 47 47 47 48 48 49 50 52 53 55 56 57 58 59 60 61 61 61 61 61 61 60 60 60 59 58 58 58 58 58 58 57 55 54 53 52 52 53 54 55 55 55 55 55 55 54 54 55 55 55 55 55 56 56 55 53 50 47 44 42 42 42 40 37 35
51 51 53 55 56 55 54 52 52 52 51 51 51 51 49 47 45 44 45 46 47 47 47 47 47 47 48 49 50 51 52 54 55 57 58 59 60 61 61 62 62 62 61 61 61 61 60 59 59 59 59 59 59 59 58 57 56 55 54 54 55 56 58 58 58 57 57 57 56 56 57 57 57 57 57 57 57 56 53 49 45 43 43 43 43 40 37 34
Wind_Direction
260 260 260 260 260 260 260 260 260 259 259 258 258 257 255 253 251 249 248 247 247 246 246 245 244 243 242 242 242 243 243 242 242 242 242 242 242 243 244 244 244 244 244 244 244 245 246 246 247 248 249 250 251 252 253 254 255 255 256 257 258 260 262 263 263 263 263 263 263 264 264 265 266 267 268 269 271 272 272 272 273 273 273 272 271 271 271 270
261 260 260 260 260 260 260 259 259 259 259 259 258 258 257 256 255 253 250 249 247 247 246 245 244 243 242 241 241 241 242 241 241 242 242 242 242 243 243 243 244 243 244 244 244 244 245 246 247 248 248 249 250 251 252 253 253 254 255 256 258 260 261 261 262 262 262 262 263 263 264 264 265 267 267 268 270 271 272 273 274 274 273 272 271 270 270 269
261 261 260 260 260 259 259 259 258 258 258 258 258 257 257 257 257 255 253 251 250 248 247 245 244 244 243 241 240 240 240 240 240 241 241 241 241 242 242 242 242 242 243 243 244 244 245 245 246 247 247 248 249 250 251 252 252 252 254 256 258 259 260 260 261 261 261 262 262 263 263 263 264 265 267 268 269 271 272 273 273 273 273 273 272 270 269 268
261 261 260 260 260 259 258 258 258 257 257 256 256 256 256 255 256 256 255 254 252 250 248 246 245 244 243 242 241 240 239 239 239 240 240 240 240 241 241 241 241 242 242 243 243 244 244 244 245 245 246 247 248 249 250 250 250 251 253 255 258 259 260 260 260 260 261 262 262 262 262 263 263 265 267 268 269 270 272 273 273 273 274 273 272 269 269 269
260 260 260 260 259 259 258 258 257 257 256 256 255 255 255 254 254 254 254 254 253 252 250 248 246 244 243 242 241 240 239 238 238 239 239 238 239 240 240 241 241 241 241 242 243 243 243 243 243 244 245 246 247 247 248 248 249 251 253 256 258 258 258 259 259 260 261 261 262 262 263 263 264 265 267 268 269 270 271 272 272 272 272 272 270 269 270 270
260 259 259 259 259 259 258 258 257 257 256 256 255 255 254 254 252 251 251 251 252 252 251 250 248 246 244 243 242 241 239 238 237 238 238 237 237 239 239 240 240 240 240 241 241 241 242 242 243 243 244 244 245 246 246 247 249 251 254 256 257 257 258 258 259 260 261 261 262 262 263 263 264 266 267 268 269 270 271 272 272 272 272 271 270 270 271 270
259 259 259 259 259 259 258 258 258 257 256 255 255 255 255 254 253 251 249 249 249 249 250 250 250 248 246 244 242 241 240 238 237 237 236 236 236 237 238 239 239 239 239 240 240 240 240 241 242 242 243 243 244 245 246 248 251 252 254 255 256 257 258 259 260 260 261 262 263 263 263 264 266 267 268 269 270 271 272 273 273 273 272 271 270 270 270 269
259 260 260 260 259 259 259 259 258 258 257 256 255 255 255 255 253 251 249 248 247 247 248 249 249 249 248 245 243 241 240 239 237 237 236 235 235 236 237 237 238 238 238 239 239 239 240 241 241 242 242 242 243 245 247 249 251 253 253 254 255 256 258 259 260 261 262 262 263 263 264 265 266 268 270 271 271 272 273 274 273 272 271 270 270 271 270 269
259 259 260 260 260 260 259 259 259 259 258 257 256 256 256 256 254 253 250 248 247 245 245 246 247 248 248 247 245 243 241 239 238 237 236 234 234 235 235 236 237 237 237 238 238 239 239 240 240 241 241 242 244 246 248 250 251 251 252 253 255 256 257 259 260 261 262 262 263 264 264 266 268 270 271 272 272 273 273 273 272 272 270 269 270 271 270 269
259 259 259 259 259 259 260 260 260 259 259 258 258 257 257 257 256 254 252 250 248 246 244 244 244 246 247 247 247 245 243 240 238 237 236 234 234 234 234 235 236 236 237 237 238 238 238 239 239 240 242 243 245 247 248 249 250 250 252 253 255 256 257 259 260 261 261 263 264 265 266 268 269 270 270 272 273 273 273 272 272 271 269 269 270 270 270 270
259 259 259 259 259 259 260 260 259 259 259 258 258 258 258 257 257 256 254 252 249 247 244 243 242 243 244 245 246 246 244 241 238 237 237 235 234 233 233 234 235 235 236 237 237 238 238 239 240 241 242 244 245 246 247 248 249 250 251 253 254 256 257 259 260 261 262 264 265 266 268 269 269 269 270 272 272 272 272 272 272 270 268 269 270 269 269 268
259 259 259 259 259 259 259 259 259 259 259 259 259 259 258 258 258 257 255 253 251 248 245 243 241 241 242 243 243 244 245 243 240 238 237 236 234 233 232 233 233 234 235 236 236 237 238 239 240 242 243 244 244 245 246 247 249 250 251 253 254 256 257 258 260 261 263 264 266 268 269 269 269 269 270 271 272 272 272 271 270 269 268 268 267 267 267 267
259 259 259 259 259 259 259 259 259 259 259 259 259 259 259 258 258 258 256 254 251 248 246 243 241 241 240 240 241 243 245 245 242 239 237 235 233 232 231 231 232 232 233 234 235 236 238 239 240 242 243 244 244 244 245 247 248 249 251 253 254 256 257 258 260 262 264 265 267 269 269 270 270 270 271 271 271 272 271 270 269 267 267 267 267 267 266 266
259 259 259 259 260 260 260 260 260 260 260 260 260 259 259 259 259 258 257 254 252 249 246 244 242 241 240 239 240 241 242 243 242 240 236 234 232 231 230 230 231 231 232 233 234 236 237 238 240 241 242 243 243 243 244 246 248 250 252 253 254 256 257 259 261 263 264 266 268 270 271 272 272 272 272 272 272 272 271 269 267 267 267 267 267 265 265 264
259 259 259 259 260 260 260 260 260 260 260 260 260 260 260 260 259 258 256 254 252 249 247 245 243 241 240 240 239 238 239 239 240 239 236 233 232 231 230 229 229 230 231 232 233 235 236 237 238 239 240 240 241 242 244 246 248 251 252 253 254 255 257 260 262 264 266 268 270 271 272 273 274 275 275 273 272 271 269 267 266 267 267 266 265 264 264 263
259 259 259 259 259 260 260 260 260 260 260 260 260 260 260 260 259 258 256 254 252 249 247 245 244 242 242 241 239 237 236 237 238 239 237 234 232 230 230 229 228 229 230 231 232 234 235 235 236 237 238 239 240 242 244 247 249 250 251 251 253 255 258 260 263 266 268 270 272 273 274 275 276 276 275 274 272 271 269 267 267 266 265 264 263 263 263 263
258 258 258 258 258 259 259 259 259 260 260 260 260 260 260 259 258 257 255 254 252 249 248 247 246 244 243 242 238 236 235 235 238 239 237 234 231 230 229 228 228 228 229 230 231 233 233 234 234 235 237 238 240 242 245 247 248 248 248 250 252 255 259 262 265 268 270 271 272 273 275 276 276 275 273 272 270 269 267 266 266 265 264 264 263 262 262 262
258 258 257 257 257 258 258 258 259 259 259 259 259 259 259 258 257 256 255 253 252 251 250 249 247 246 245 242 238 236 235 235 237 238 236 234 231 229 228 227 227 227 228 229 230 231 231 232 233 234 236 238 240 243 244 245 245 245 247 250 254 257 260 263 265 267 269 271 273 275 276 275 274 272 270 269 267 267 265 264 263 263 263 264 263 262 261 261
257 257 257 257 257 258 258 258 258 259 259 259 259 258 258 257 256 255 254 253 253 252 251 250 249 247 245 241 238 236 235 234 234 235 235 233 230 227 227 226 226 226 226 227 228 229 230 230 232 234 236 238 239 240 240 241 243 246 249 252 256 259 261 263 265 266 269 272 274 275 276 275 273 271 268 266 264 263 262 261 260 260 262 263 263 263 263 264
258 257 257 257 258 258 258 258 258 258 258 258 258 257 257 256 256 255 255 255 255 254 253 252 251 249 246 242 238 234 232 231 229 229 230 230 228 226 225 225 225 225 225 226 227 227 228 230 231 233 235 235 235 236 237 240 244 247 251 254 257 260 261 263 265 268 271 273 275 275 275 273 271 269 266 263 261 260 260 259 259 259 261 263 265 266 267 268
259 258 257 257 257 257 257 257 257 257 257 257 257 256 256 257 257 258 257 257 256 255 255 253 251 248 245 241 236 231 228 226 225 225 226 226 225 224 224 224 223 223 223 224 225 226 227 228 230 231 232 233 234 236 238 241 245 248 251 255 257 259 261 263 266 268 271 273 275 275 273 270 269 267 265 262 259 259 258 258 259 261 264 265 267 268 269 270
260 258 257 257 256 256 257 257 257 257 257 257 257 258 259 260 260 259 258 258 257 256 255 253 250 245 240 235 231 226 222 221 219 220 222 222 222 221 222 221 221 221 221 222 223 224 225 227 228 230 231 232 235 237 240 242 245 248 252 254 257 258 261 263 265 268 271 273 273 271 268 267 267 265 265 265 261 259 258 258 261 264 265 265 264 265 267 268
263 260 259 258 257 257 257 257 257 258 258 258 260 261 261 261 260 259 258 258 257 255 252 248 243 238 233 227 222 218 215 215 215 215 217 218 218 219 219 219 219 219 219 220 221 222 223 224 226 228 230 232 235 238 240 242 245 248 251 253 255 257 260 262 265 268 270 271 269 267 265 264 265 265 264 262 260 259 259 260 262 264 263 264 263 263 264 265
265 262 260 259 259 258 258 258 259 259 260 261 262 262 261 260 260 259 258 257 254 249 244 239 235 230 224 218 215 212 210 211 212 212 214 215 215 216 216 216 217 217 218 219 220 220 221 223 225 227 230 232 236 238 240 242 245 247 250 252 254 257 259 262 265 267 268 267 266 265 263 262 263 264 262 260 260 260 260 261 261 262 263 264 264 263 264 266
265 263 261 260 260 260 260 260 261 262 263 264 263 262 261 261 260 257 254 250 244 239 234 230 225 220 215 210 210 209 207 208 209 211 212 212 213 213 214 214 215 216 216 217 218 219 221 224 226 229 231 233 236 239 240 242 245 247 250 252 254 256 259 262 265 267 267 265 264 262 261 261 261 263 264 266 263 258 258 260 261 262 263 264 265 265 266 267
264 263 262 262 262 262 263 263 265 266 265 264 263 262 260 258 255 250 244 238 233 228 222 217 213 209 204 203 206 206 204 206 207 209 210 211 211 211 211 212 213 214 215 216 217 219 223 225 227 229 231 233 235 238 240 242 245 247 249 251 254 256 259 262 265 266 266 265 263 261 259 257 259 262 266 267 263 255 255 259 262 263 263 264 265 267 268 270
264 263 263 263 264 265 266 267 268 267 265 264 262 259 255 251 245 239 233 226 220 215 209 204 202 198 194 199 203 201 201 204 206 207 209 210 211 212 211 211 211 212 213 214 216 220 223 225 226 228 230 232 235 238 240 242 244 246 248 250 253 256 259 263 265 266 265 264 262 260 256 254 255 260 262 264 264 260 257 259 262 264 265 265 267 268 270 271
264 264 265 266 267 268 269 269 269 266 264 261 257 252 247 241 235 229 222 216 209 202 197 192 192 192 193 198 200 198 200 202 203 205 207 209 210 211 211 211 211 211 212 212 215 219 221 222 224 226 228 230 233 236 238 240 243 245 248 250 253 257 260 263 266 266 264 262 260 256 252 249 250 256 259 262 266 267 265 264 265 265 266 267 268 268 269 270
265 265 267 268 270 271 271 270 268 264 259 254 248 243 238 232 225 218 211 206 199 193 190 186 187 192 196 198 199 200 201 201 202 204 205 206 208 208 209 210 210 210 210 212 215 218 218 220 223 225 227 229 232 235 237 239 242 245 248 252 256 259 261 264 265 264 262 259 255 250 246 245 248 253 257 261 266 268 267 266 265 266 267 268 268 270 271 272
265 267 269 271 272 273 272 268 263 257 251 246 241 235 228 220 214 207 201 196 191 190 190 187 187 192 197 199 200 201 201 202 204 205 205 206 206 206 208 209 210 209 209 212 216 218 219 221 224 226 228 231 233 236 238 240 243 247 252 255 258 260 262 263 263 261 259 257 252 245 243 245 248 252 255 259 263 264 263 263 264 265 267 269 271 272 273 274
267 270 272 274 275 274 269 263 255 249 243 237 230 222 214 208 203 197 192 190 189 190 189 188 189 192 196 199 200 199 200 202 204 204 206 207 207 207 207 209 210 210 211 214 217 218 220 223 224 226 228 231 234 237 239 242 246 250 254 256 258 260 262 262 260 258 254 253 252 246 244 246 248 250 255 258 259 258 258 260 263 265 268 271 273 274 275 275
269 272 275 276 275 271 263 254 247 240 233 224 216 208 202 197 192 188 186 186 187 188 187 186 188 191 195 198 199 198 198 200 202 203 204 205 206 206 207 208 208 209 212 215 217 218 219 221 222 224 227 230 233 236 239 243 247 251 254 255 257 259 261 261 259 256 252 251 251 247 245 247 249 251 255 256 256 256 257 260 264 267 271 273 275 275 275 275
272 275 277 276 272 263 253 244 236 227 218 210 202 196 191 186 183 182 182 183 186 187 187 187 189 191 195 198 198 197 197 199 200 201 202 203 204 204 204 205 205 206 210 214 215 216 218 219 221 224 227 231 234 237 240 243 246 249 250 252 255 257 258 257 254 253 251 249 249 248 247 247 250 252 253 255 258 260 262 264 267 270 271 273 274 274 274 275
275 277 277 273 264 253 243 234 223 213 205 198 191 186 182 180 181 181 181 182 184 186 187 189 190 192 195 196 196 195 196 198 200 200 201 202 203 203 203 204 204 206 211 214 214 214 216 219 221 224 227 230 233 235 238 241 243 245 247 251 254 255 255 253 252 251 249 247 247 249 250 250 251 253 254 257 261 264 265 266 268 269 270 270 270 271 273 276
277 278 274 265 252 241 230 219 210 201 194 188 182 178 177 179 181 181 179 180 183 186 189 189 190 192 195 196 195 194 194 196 199 199 200 201 202 203 203 203 203 206 211 213 213 214 216 218 220 223 225 228 231 234 236 239 241 244 247 251 255 256 255 254 254 253 251 249 250 252 254 253 253 255 256 259 261 263 264 265 266 265 264 266 270 274 277 281
278 275 266 252 239 227 216 205 197 190 184 179 174 173 177 181 181 179 178 180 184 189 189 188 190 193 195 196 196 195 195 196 197 197 197 199 201 202 202 202 203 205 210 212 211 212 215 217 220 222 225 228 231 234 237 239 242 245 249 253 255 255 255 254 254 255 255 254 254 255 255 254 254 255 257 259 260 262 263 264 263 262 262 267 273 278 281 283
276 267 252 238 226 215 203 192 186 182 177 173 172 176 180 181 179 178 179 182 187 190 189 188 190 192 194 197 197 196 196 196 198 198 197 198 201 202 203 203 204 206 209 212 211 211 213 216 220 222 226 229 232 235 238 241 244 247 250 252 254 255 256 257 258 258 258 256 254 254 254 255 256 258 259 260 261 262 263 263 261 262 265 270 274 278 281 282
269 254 238 226 214 203 192 183 180 177 173 173 176 180 182 181 179 178 180 184 188 190 190 190 191 191 193 195 197 197 196 195 197 199 198 198 200 202 203 204 205 207 210 213 213 214 215 218 220 222 225 229 232 235 238 241 244 246 249 252 254 255 256 257 258 257 254 252 252 253 254 256 258 259 259 260 261 262 263 263 263 264 268 272 275 277 279 281
256 238 225 214 204 194 185 179 176 174 173 176 181 183 183 183 181 179 181 184 187 190 191 191 192 193 193 194 195 196 195 195 197 199 198 198 200 202 204 204 206 208 212 214 216 216 218 220 222 224 226 230 233 235 238 240 243 246 250 253 255 255 254 254 254 252 251 252 253 253 255 257 258 258 258 258 259 261 262 264 266 268 270 272 274 276 278 282
240 225 213 203 195 187 180 177 174 173 176 181 183 184 184 184 182 180 181 184 187 190 191 192 193 193 193 193 193 195 195 196 198 199 199 198 199 202 204 205 207 209 211 214 217 218 220 222 223 225 229 231 234 236 238 240 243 247 250 252 252 252 252 251 250 250 251 252 253 254 255 256 256 256 257 258 259 261 263 265 267 269 271 272 274 278 282 286
225 214 203 195 189 183 178 175 173 175 180 184 185 185 184 184 183 181 181 184 188 191 192 193 193 194 193 191 192 194 196 197 199 200 200 199 200 202 204 206 208 209 210 213 216 218 221 224 225 226 229 231 233 236 238 240 243 246 250 251 250 249 248 248 249 250 251 252 253 254 254 254 255 257 258 260 261 262 263 264 266 269 272 275 279 283 287 289
213 204 196 190 185 181 177 175 176 179 183 185 186 185 184 184 184 182 182 186 189 192 194 193 193 193 193 191 191 194 196 198 200 201 202 202 203 204 205 208 209 210 211 213 215 217 220 223 225 227 230 232 234 236 238 240 243 247 250 251 250 249 249 250 251 252 252 252 252 252 253 255 257 260 260 261 261 262 263 264 267 271 275 279 284 288 290 291
202 196 190 186 182 180 177 177 179 182 184 186 186 185 184 184 184 184 185 188 191 193 195 193 192 193 193 192 192 194 196 198 200 202 203 205 206 207 208 209 210 211 212 214 216 218 220 222 224 226 229 232 234 236 238 240 243 247 250 250 249 248 248 248 249 249 250 251 252 253 254 256 258 259 259 260 261 262 264 267 271 276 280 284 288 291 293 294
197 192 187 183 181 179 177 179 182 184 185 185 185 184 184 184 185 186 187 190 192 194 194 193 192 194 193 193 194 195 195 197 200 202 203 205 206 208 210 211 212 213 214 215 218 220 222 223 225 226 228 230 233 235 238 240 243 247 248 249 248 247 246 246 246 248 249 252 254 254 255 255 256 257 257 259 261 263 266 270 275 281 285 288 291 293 296 296
194 190 185 181 180 179 178 180 183 184 185 185 186 186 186 186 188 188 189 191 192 194 194 194 194 195 194 194 196 196 197 198 200 202 203 204 205 207 209 211 213 215 215 217 219 221 223 225 227 228 229 231 234 235 237 239 241 243 244 246 246 246 246 246 247 248 250 252 253 254 254 255 255 256 257 259 261 264 268 272 277 283 287 289 291 295 297 296
191 187 183 181 181 181 180 181 183 184 185 187 188 189 188 189 189 189 190 192 192 194 195 195 195 196 195 195 196 197 199 201 202 203 204 205 206 207 208 210 212 214 216 218 220 222 224 226 228 229 229 231 233 234 235 238 239 239 238 240 242 244 245 246 247 249 250 251 252 253 254 255 256 257 258 259 261 265 269 273 279 283 286 288 291 294 296 295
188 184 181 180 181 182 182 182 183 184 186 189 190 191 191 191 191 191 191 193 193 195 196 196 195 196 197 197 197 197 200 202 204 205 206 208 209 210 210 211 213 214 216 218 220 221 224 226 228 230 230 231 232 233 235 239 240 240 239 238 238 240 242 244 245 247 248 249 251 252 254 256 257 259 259 260 262 266 270 274 279 282 284 287 290 292 294 292
185 182 180 181 182 183 183 182 182 184 187 189 190 192 194 195 194 193 193 194 195 196 196 196 195 196 198 199 198 198 200 202 204 206 209 211 212 213 214 215 215 217 218 219 221 223 224 226 228 230 232 232 232 233 235 238 240 241 242 242 241 241 243 244 245 246 248 250 251 253 255 257 258 259 260 262 264 266 270 273 277 280 283 285 288 291 292 288
183 182 182 182 182 182 182 182 182 184 187 189 190 192 196 197 197 196 196 197 198 197 197 196 197 197 198 200 201 201 202 203 205 207 209 212 214 215 216 217 218 219 220 221 223 224 226 227 229 231 233 233 234 234 235 237 238 239 240 242 244 244 245 246 247 248 250 251 253 254 255 257 258 259 261 263 265 266 269 273 276 279 281 283 287 290 289 284
182 182 183 183 182 181 181 182 183 184 187 190 192 194 197 199 199 198 198 200 200 199 198 198 199 200 200 202 203 204 205 206 207 209 210 213 216 218 219 220 220 222 222 223 224 226 227 228 230 232 234 235 236 236 237 237 239 239 240 241 243 244 245 246 248 249 250 252 253 254 256 256 257 259 261 263 265 267 269 272 275 277 279 281 287 289 286 281
181 182 182 182 183 182 182 183 185 186 189 192 194 197 200 200 200 199 201 203 203 202 202 202 203 203 203 204 206 207 209 209 210 211 213 214 217 219 220 221 222 223 224 225 226 227 228 229 230 232 234 236 238 238 239 240 241 242 243 243 244 245 246 247 248 249 250 251 252 254 255 256 257 259 261 263 265 267 270 272 275 276 276 280 286 287 282 278
181 180 181 182 184 185 185 185 187 189 191 194 197 200 201 201 201 202 204 205 205 204 205 206 207 207 207 207 208 209 211 212 213 214 215 217 218 220 222 223 224 225 226 227 228 228 230 230 231 233 235 237 239 240 240 241 242 243 244 245 245 247 248 248 249 250 250 251 252 253 254 256 258 259 261 263 266 268 270 271 272 272 274 280 285 283 279 277
Height
10618 10619 10619 10620 10621 10622 10623 10624 10625 10626 10628 10629 10630 10632 10634 10636 10638 10640 10643 10646 10649 10651 10653 10656 10658 10661 10666 10670 10674 10677 10682 10687 10690 10695 10693 10692 10702 10709 10710 10711 10716 10720 10722 10726 10728 10731 10735 10739 10743 10745 10747 10749 10750 10753 10757 10760 10762 10759 10756 10757 10761 10769 10775 10777 10778 10778 10780 10781 10783 10785 10787 10787 10784 10782 10779 10777 10778 10777 10781 10788 10791 10793 10793 10792 10791 10789 10789 10790
10612 10612 10613 10614 10615 10615 10616 10618 10619 10620 10621 10622 10624 10625 10627 10629 10631 10634 10637 10639 10642 10644 10646 10648 10650 10653 10657 10661 10665 10668 10674 10679 10684 10686 10680 10688 10701 10702 10702 10705 10710 10713 10715 10719 10722 10726 10730 10734 10738 10740 10741 10743 10745 10749 10751 10755 10755 10750 10750 10753 10758 10765 10769 10771 10772 10773 10774 10776 10778 10780 10782 10782 10779 10777 10774 10774 10775 10773 10776 10784 10786 10787 10787 10787 10787 10785 10784 10785
10605 10605 10606 10607 10608 10609 10610 10611 10612 10613 10614 10616 10617 10618 10620 10622 10624 10627 10630 10632 10635 10637 10638 10640 10642 10645 10649 10652 10656 10660 10665 10671 10678 10674 10672 10688 10696 10691 10695 10699 10702 10706 10708 10712 10716 10720 10725 10729 10732 10733 10735 10737 10740 10743 10746 10748 10746 10744 10746 10749 10754 10760 10763 10765 10767 10767 10769 10771 10773 10775 10776 10775 10774 10772 10768 10769 10771 10769 10773 10779 10780 10780 10781 10782 10782 10780 10778 10780
10598 10598 10599 10600 10601 10602 10603 10604 10605 10606 10607 10609 10610 10612 10613 10615 10618 10620 10623 10625 10627 10629 10630 10632 10634 10637 10641 10644 10647 10651 10656 10664 10668 10662 10669 10685 10685 10682 10688 10692 10695 10699 10703 10706 10710 10715 10720 10724 10725 10726 10729 10732 10735 10738 10740 10740 10738 10738 10741 10745 10751 10756 10758 10760 10761 10762 10764 10765 10767 10769 10769 10769 10768 10767 10764 10765 10766 10766 10769 10773 10775 10776 10776 10777 10774 10772 10773 10776
10591 10591 10592 10592 10593 10594 10595 10596 10598 10599 10600 10602 10603 10605 10606 10609 10611 10613 10616 10618 10619 10621 10622 10624 10627 10630 10633 10636 10639 10643 10648 10655 10657 10655 10664 10676 10675 10675 10682 10685 10689 10693 10697 10700 10704 10709 10714 10716 10718 10720 10723 10726 10730 10731 10732 10732 10733 10735 10738 10744 10748 10750 10751 10753 10755 10757 10758 10759 10761 10762 10763 10762 10763 10762 10760 10760 10760 10762 10766 10768 10770 10772 10772 10770 10765 10764 10768 10771
10583 10583 10584 10584 10585 10586 10587 10589 10590 10591 10593 10594 10596 10598 10599 10602 10604 10607 10609 10610 10612 10613 10614 10616 10619 10623 10626 10629 10632 10635 10641 10646 10646 10647 10657 10666 10667 10669 10675 10679 10683 10687 10692 10694 10698 10703 10707 10710 10712 10715 10717 10721 10723 10723 10725 10727 10729 10732 10736 10741 10743 10743 10745 10747 10750 10751 10752 10753 10754 10756 10756 10756 10757 10757 10755 10754 10754 10757 10761 10763 10766 10767 10767 10763 10757 10759 10765 10765
10574 10575 10575 10576 10577 10578 10579 10581 10582 10583 10585 10586 10588 10590 10592 10594 10597 10600 10601 10603 10604 10605 10607 10608 10611 10615 10617 10621 10623 10627 10634 10635 10635 10639 10648 10657 10659 10662 10668 10673 10676 10681 10685 10688 10692 10697 10700 10703 10706 10708 10711 10715 10715 10716 10721 10724 10726 10729 10733 10736 10736 10737 10740 10742 10744 10745 10746 10747 10748 10749 10749 10750 10752 10752 10750 10749 10749 10752 10756 10759 10761 10761 10761 10754 10750 10755 10759 10758
10565 10566 10566 10568 10569 10570 10571 10572 10573 10575 10576 10578 10580 10582 10584 10586 10589 10592 10593 10595 10596 10597 10599 10600 10604 10607 10610 10613 10615 10621 10625 10622 10627 10634 10641 10648 10651 10655 10662 10665 10670 10675 10678 10682 10686 10691 10695 10698 10700 10702 10705 10707 10708 10713 10719 10721 10722 10724 10727 10729 10730 10732 10734 10736 10737 10739 10740 10741 10741 10741 10743 10746 10747 10747 10746 10743 10744 10748 10752 10753 10754 10755 10753 10746 10744 10750 10751 10751
10556 10557 10557 10558 10559 10560 10562 10563 10565 10566 10567 10569 10571 10573 10575 10578 10581 10583 10585 10587 10588 10590 10591 10593 10596 10599 10602 10605 10607 10614 10613 10613 10623 10628 10631 10639 10643 10648 10654 10657 10662 10667 10671 10676 10681 10687 10689 10690 10692 10695 10698 10701 10705 10712 10716 10716 10715 10717 10721 10724 10726 10727 10729 10730 10732 10733 10733 10734 10734 10735 10738 10741 10744 10744 10740 10737 10738 10744 10748 10747 10747 10749 10745 10739 10741 10744 10744 10744
10546 10547 10548 10549 10550 10551 10552 10554 10555 10556 10558 10560 10562 10564 10566 10569 10572 10574 10576 10578 10580 10581 10582 10585 10588 10591 10595 10597 10601 10604 10601 10608 10618 10619 10623 10631 10635 10640 10645 10650 10655 10660 10665 10670 10676 10680 10680 10681 10685 10689 10693 10698 10703 10708 10710 10709 10708 10711 10716 10719 10720 10721 10723 10725 10726 10726 10726 10727 10727 10728 10733 10737 10740 10740 10735 10733 10733 10737 10740 10741 10742 10742 10737 10735 10738 10739 10737 10738
10536 10537 10538 10539 10540 10541 10543 10544 10545 10546 10548 10550 10552 10554 10557 10560 10562 10565 10567 10570 10571 10571 10574 10577 10580 10584 10587 10590 10594 10593 10593 10603 10610 10611 10617 10622 10626 10631 10637 10643 10648 10653 10659 10664 10669 10670 10671 10676 10681 10686 10690 10695 10700 10703 10703 10701 10702 10707 10711 10714 10715 10716 10718 10719 10719 10719 10721 10722 10720 10723 10729 10732 10733 10733 10732 10730 10728 10730 10732 10734 10735 10733 10730 10731 10734 10732 10732 10732
10525 10526 10527 10528 10530 10531 10533 10534 10535 10536 10538 10540 10542 10544 10547 10549 10552 10555 10558 10560 10561 10562 10565 10568 10573 10576 10579 10584 10584 10581 10587 10597 10602 10605 10610 10613 10617 10623 10629 10636 10640 10645 10652 10657 10660 10661 10665 10672 10677 10682 10686 10691 10695 10696 10695 10695 10698 10702 10706 10709 10709 10710 10712 10712 10713 10715 10717 10716 10714 10719 10724 10725 10726 10728 10729 10725 10724 10725 10726 10728 10728 10724 10724 10726 10727 10727 10727 10727
10515 10516 10517 10518 10519 10521 10522 10523 10524 10526 10527 10530 10532 10534 10536 10538 10541 10545 10548 10550 10550 10552 10556 10559 10564 10567 10572 10575 10571 10574 10583 10589 10593 10596 10599 10602 10608 10613 10620 10625 10631 10637 10643 10647 10650 10654 10661 10668 10673 10678 10682 10686 10688 10690 10689 10689 10693 10696 10701 10703 10703 10704 10705 10706 10708 10710 10711 10709 10710 10714 10717 10717 10719 10722 10723 10720 10719 10720 10720 10721 10720 10717 10718 10720 10721 10722 10722 10722
10504 10505 10506 10507 10509 10510 10512 10513 10514 10515 10517 10519 10521 10523 10524 10527 10531 10534 10537 10539 10540 10543 10546 10550 10554 10558 10563 10562 10561 10571 10577 10579 10582 10582 10585 10592 10599 10604 10610 10615 10622 10629 10633 10638 10642 10649 10658 10665 10670 10674 10677 10680 10681 10682 10683 10684 10687 10691 10696 10697 10696 10697 10698 10701 10704 10704 10704 10704 10705 10708 10710 10711 10712 10715 10718 10716 10715 10715 10714 10714 10711 10711 10714 10715 10716 10716 10717 10718
10493 10494 10495 10496 10498 10499 10501 10502 10502 10504 10506 10508 10509 10511 10513 10516 10520 10523 10526 10528 10530 10533 10537 10540 10543 10548 10552 10549 10555 10567 10567 10566 10567 10568 10577 10586 10591 10596 10601 10607 10614 10620 10625 10631 10637 10645 10654 10661 10665 10668 10670 10671 10673 10676 10678 10680 10683 10687 10690 10688 10689 10692 10693 10696 10698 10698 10699 10699 10700 10702 10703 10705 10706 10709 10711 10710 10710 10709 10708 10706 10705 10706 10709 10710 10710 10709 10711 10712
10482 10483 10484 10485 10487 10488 10489 10490 10491 10493 10495 10496 10497 10499 10502 10505 10508 10512 10515 10517 10520 10523 10526 10529 10531 10537 10540 10539 10550 10558 10554 10551 10555 10563 10573 10579 10583 10588 10593 10600 10606 10612 10618 10625 10632 10641 10650 10656 10658 10660 10662 10664 10668 10671 10673 10677 10679 10681 10681 10680 10683 10687 10689 10691 10693 10693 10693 10693 10694 10696 10697 10698 10701 10703 10703 10703 10703 10703 10702 10701 10701 10702 10703 10705 10705 10704 10705 10706
10471 10472 10473 10474 10476 10477 10478 10479 10480 10482 10483 10485 10486 10488 10491 10493 10496 10501 10504 10506 10510 10513 10515 10517 10520 10527 10528 10531 10541 10544 10538 10540 10550 10560 10565 10569 10576 10582 10587 10593 10598 10604 10611 10620 10629 10637 10645 10649 10651 10653 10655 10659 10664 10667 10672 10674 10672 10671 10671 10674 10679 10683 10685 10687 10688 10688 10687 10686 10687 10689 10690 10692 10695 10696 10696 10696 10696 10696 10696 10696 10696 10696 10697 10699 10700 10700 10700 10701
10460 10461 10462 10463 10464 10465 10467 10468 10469 10471 10472 10473 10475 10477 10479 10482 10486 10490 10493 10496 10500 10502 10503 10504 10508 10514 10515 10519 10527 10529 10528 10536 10546 10553 10556 10562 10570 10576 10581 10585 10590 10598 10607 10617 10625 10631 10638 10641 10643 10646 10650 10656 10661 10666 10667 10663 10659 10661 10666 10671 10677 10680 10682 10682 10682 10682 10680 10679 10681 10683 10684 10686 10688 10689 10689 10689 10689 10689 10689 10690 10691 10691 10692 10694 10695 10696 10695 10695
10449 10450 10451 10452 10453 10455 10456 10457 10458 10459 10460 10462 10464 10466 10468 10471 10475 10479 10482 10486 10489 10489 10489 10491 10496 10500 10501 10507 10515 10519 10523 10530 10539 10545 10549 10556 10563 10569 10573 10578 10585 10594 10603 10611 10618 10624 10630 10634 10637 10643 10649 10654 10657 10657 10653 10649 10652 10659 10664 10669 10673 10676 10676 10675 10676 10677 10675 10674 10675 10677 10679 10679 10681 10682 10682 10682 10683 10682 10683 10684 10685 10685 10686 10688 10689 10690 10690 10690
10439 10440 10441 10442 10443 10444 10445 10446 10447 10448 10450 10452 10454 10455 10457 10461 10465 10469 10473 10476 10476 10475 10477 10480 10484 10487 10491 10498 10504 10509 10513 10520 10529 10535 10539 10547 10555 10561 10566 10573 10581 10589 10597 10605 10611 10618 10623 10629 10635 10640 10642 10644 10645 10642 10641 10646 10653 10658 10661 10665 10669 10669 10668 10668 10670 10672 10672 10669 10668 10671 10673 10674 10675 10675 10675 10676 10677 10677 10678 10679 10680 10681 10681 10682 10684 10684 10684 10685
10429 10430 10431 10432 10432 10433 10434 10435 10436 10438 10439 10441 10443 10444 10447 10452 10457 10460 10462 10462 10462 10463 10465 10466 10470 10475 10480 10486 10492 10498 10504 10510 10519 10525 10531 10539 10547 10554 10561 10569 10576 10584 10591 10597 10604 10611 10618 10626 10631 10631 10631 10633 10633 10633 10639 10648 10652 10655 10658 10661 10663 10662 10661 10662 10666 10668 10667 10663 10661 10664 10667 10667 10670 10670 10668 10669 10671 10672 10673 10674 10675 10677 10677 10678 10679 10679 10679 10679
10420 10420 10420 10421 10422 10422 10423 10425 10426 10427 10429 10431 10432 10435 10440 10444 10447 10448 10448 10448 10449 10451 10452 10455 10459 10464 10469 10475 10481 10488 10495 10501 10510 10518 10524 10533 10542 10549 10556 10563 10570 10577 10582 10589 10598 10607 10616 10622 10620 10619 10621 10625 10627 10631 10640 10646 10648 10652 10654 10656 10657 10655 10656 10657 10660 10662 10661 10658 10656 10657 10659 10660 10663 10665 10665 10664 10665 10667 10668 10669 10671 10673 10674 10674 10674 10675 10675 10674
10411 10411 10411 10411 10412 10413 10414 10415 10417 10417 10419 10421 10424 10428 10431 10433 10433 10434 10434 10435 10436 10439 10441 10444 10447 10452 10458 10465 10471 10479 10485 10492 10501 10510 10518 10527 10535 10542 10550 10557 10562 10568 10576 10585 10594 10603 10611 10609 10605 10608 10614 10620 10624 10629 10637 10641 10644 10648 10649 10650 10649 10649 10652 10653 10654 10656 10656 10654 10652 10651 10653 10654 10655 10658 10660 10660 10660 10661 10662 10664 10667 10669 10670 10670 10671 10671 10669 10668
10402 10402 10402 10402 10403 10404 10405 10406 10407 10408 10410 10414 10417 10418 10419 10420 10420 10420 10421 10423 10425 10428 10430 10433 10438 10445 10452 10458 10465 10471 10477 10486 10496 10504 10512 10519 10527 10536 10543 10549 10554 10562 10572 10580 10589 10597 10597 10591 10593 10603 10612 10618 10621 10625 10632 10637 10640 10643 10644 10643 10642 10644 10647 10647 10649 10651 10650 10649 10647 10646 10648 10648 10649 10651 10653 10656 10657 10658 10658 10660 10662 10665 10667 10667 10666 10665 10664 10664
10394 10393 10393 10393 10394 10395 10396 10397 10398 10400 10402 10405 10405 10405 10406 10407 10407 10408 10410 10413 10416 10419 10423 10427 10434 10440 10447 10455 10462 10467 10474 10484 10492 10500 10506 10513 10521 10528 10535 10542 10549 10559 10567 10575 10584 10586 10582 10583 10594 10605 10611 10615 10617 10621 10627 10632 10635 10637 10638 10636 10636 10639 10640 10641 10644 10645 10644 10644 10643 10643 10644 10644 10646 10644 10645 10651 10655 10655 10655 10656 10659 10662 10663 10662 10661 10660 10660 10660
10386 10385 10385 10386 10386 10387 10388 10388 10389 10392 10393 10393 10393 10393 10394 10395 10395 10397 10401 10404 10408 10413 10417 10422 10428 10435 10446 10454 10457 10464 10474 10481 10487 10495 10502 10507 10514 10520 10528 10536 10545 10554 10561 10569 10576 10575 10575 10585 10596 10603 10606 10609 10612 10616 10622 10626 10630 10632 10630 10629 10631 10633 10635 10637 10639 10639 10639 10639 10638 10640 10639 10640 10644 10640 10638 10645 10649 10650 10653 10654 10656 10659 10658 10657 10656 10655 10655 10655
10378 10378 10378 10378 10379 10379 10379 10380 10382 10383 10382 10381 10381 10382 10383 10384 10386 10390 10394 10397 10402 10407 10412 10418 10424 10433 10442 10446 10451 10462 10469 10474 10483 10492 10497 10503 10510 10517 10525 10532 10539 10547 10555 10565 10570 10569 10575 10586 10592 10596 10601 10605 10608 10612 10616 10620 10624 10624 10622 10623 10625 10627 10630 10632 10633 10634 10634 10634 10634 10635 10635 10638 10641 10635 10631 10637 10643 10646 10649 10650 10651 10652 10651 10651 10650 10650 10650 10649
10371 10370 10370 10371 10371 10371 10371 10371 10372 10371 10370 10370 10370 10371 10373 10376 10380 10384 10388 10392 10397 10402 10408 10416 10423 10431 10436 10441 10449 10456 10460 10468 10478 10485 10491 10499 10507 10515 10522 10528 10535 10542 10552 10561 10561 10562 10572 10581 10584 10589 10595 10600 10602 10604 10609 10615 10617 10615 10614 10617 10619 10621 10625 10627 10628 10629 10629 10629 10629 10630 10632 10635 10635 10629 10628 10634 10639 10641 10643 10643 10643 10644 10644 10645 10645 10645 10644 10644
10363 10363 10363 10363 10363 10362 10362 10362 10361 10359 10359 10359 10361 10363 10367 10371 10375 10379 10384 10389 10394 10399 10406 10414 10423 10429 10434 10441 10447 10451 10457 10466 10472 10477 10486 10495 10502 10510 10517 10521 10528 10538 10548 10553 10550 10555 10567 10572 10576 10584 10590 10593 10595 10598 10604 10609 10609 10607 10608 10612 10614 10616 10621 10623 10624 10623 10623 10624 10624 10626 10627 10627 10627 10627 10629 10633 10636 10636 10637 10636 10636 10637 10638 10640 10640 10640 10639 10639
10356 10356 10356 10355 10354 10354 10353 10351 10350 10349 10350 10352 10355 10359 10363 10367 10371 10375 10381 10386 10392 10398 10404 10412 10419 10425 10432 10438 10443 10449 10458 10464 10469 10477 10485 10491 10497 10504 10510 10516 10525 10536 10543 10545 10546 10555 10564 10567 10574 10583 10586 10587 10589 10595 10601 10603 10602 10602 10604 10606 10608 10611 10615 10618 10619 10618 10618 10618 10619 10622 10621 10620 10624 10627 10628 10630 10632 10632 10632 10632 10632 10632 10634 10635 10635 10634 10633 10633
10348 10348 10348 10347 10345 10344 10343 10342 10341 10342 10344 10347 10352 10356 10359 10363 10368 10373 10378 10384 10390 10396 10403 10410 10417 10424 10430 10434 10438 10446 10455 10461 10469 10478 10484 10489 10495 10501 10508 10516 10527 10536 10540 10541 10546 10554 10561 10567 10575 10579 10580 10581 10586 10592 10596 10597 10598 10599 10599 10599 10601 10606 10610 10612 10613 10613 10613 10612 10614 10616 10615 10616 10621 10624 10625 10627 10627 10627 10628 10629 10629 10629 10630 10630 10629 10628 10627 10628
10341 10341 10340 10338 10337 10335 10335 10334 10335 10338 10341 10344 10348 10352 10356 10361 10367 10372 10377 10383 10389 10394 10401 10408 10414 10420 10424 10427 10434 10443 10452 10459 10468 10475 10480 10487 10494 10501 10509 10516 10525 10534 10537 10538 10543 10551 10558 10564 10569 10571 10573 10577 10582 10587 10591 10593 10594 10594 10592 10591 10595 10602 10605 10606 10607 10608 10607 10608 10610 10610 10610 10614 10618 10621 10622 10621 10621 10622 10624 10625 10625 10625 10625 10624 10623 10622 10622 10622
10334 10333 10332 10330 10329 10328 10328 10329 10331 10334 10337 10341 10345 10349 10355 10361 10365 10369 10374 10380 10387 10394 10401 10406 10411 10416 10420 10426 10435 10444 10451 10457 10464 10470 10476 10482 10489 10496 10503 10511 10520 10527 10528 10530 10537 10546 10553 10558 10561 10565 10569 10573 10578 10583 10586 10588 10588 10587 10585 10585 10591 10598 10601 10601 10601 10602 10602 10604 10603 10603 10607 10613 10615 10617 10618 10615 10615 10617 10619 10620 10620 10619 10619 10618 10618 10617 10616 10616
10327 10326 10324 10323 10322 10322 10324 10326 10328 10331 10334 10338 10343 10349 10355 10359 10362 10366 10372 10379 10387 10394 10399 10405 10410 10416 10420 10426 10434 10443 10451 10456 10461 10467 10473 10480 10486 10493 10501 10509 10517 10521 10521 10525 10535 10544 10549 10553 10557 10561 10564 10569 10573 10577 10579 10580 10579 10579 10579 10582 10588 10594 10596 10596 10596 10597 10598 10598 10597 10599 10605 10611 10611 10611 10612 10611 10611 10611 10612 10614 10614 10613 10612 10612 10612 10612 10611 10611
10321 10319 10318 10317 10317 10318 10320 10323 10325 10328 10332 10337 10343 10349 10353 10355 10359 10365 10373 10381 10387 10392 10397 10404 10410 10415 10419 10424 10432 10439 10446 10451 10457 10465 10472 10478 10483 10490 10498 10506 10513 10516 10517 10523 10534 10541 10544 10548 10552 10555 10559 10563 10567 10569 10570 10571 10572 10573 10576 10580 10585 10590 10591 10591 10592 10592 10593 10594 10594 10598 10603 10605 10606 10606 10606 10607 10607 10606 10606 10608 10608 10607 10606 10606 10605 10605 10605 10605
10314 10313 10312 10312 10313 10315 10317 10320 10323 10327 10332 10337 10343 10347 10349 10352 10358 10366 10374 10380 10385 10389 10395 10403 10409 10414 10420 10425 10432 10438 10442 10447 10454 10461 10468 10474 10479 10486 10494 10501 10507 10511 10514 10520 10529 10534 10538 10542 10545 10550 10555 10558 10560 10562 10563 10565 10567 10570 10574 10578 10581 10584 10585 10586 10588 10588 10589 10591 10593 10595 10597 10598 10600 10600 10601 10602 10602 10601 10601 10602 10603 10602 10600 10599 10599 10599 10600 10600
10309 10308 10307 10308 10310 10312 10315 10318 10321 10326 10331 10337 10341 10342 10344 10350 10358 10366 10373 10378 10382 10387 10394 10401 10406 10413 10419 10425 10431 10436 10442 10448 10454 10460 10467 10473 10479 10486 10493 10499 10505 10508 10510 10515 10521 10528 10532 10536 10540 10546 10550 10552 10553 10555 10558 10561 10564 10568 10572 10574 10576 10579 10580 10582 10584 10585 10587 10588 10590 10591 10592 10592 10594 10595 10596 10597 10597 10596 10597 10598 10598 10596 10595 10595 10595 10595 10596 10596
10304 10303 10303 10305 10307 10310 10313 10316 10320 10325 10330 10334 10336 10338 10343 10351 10358 10365 10371 10377 10382 10388 10394 10399 10404 10410 10416 10422 10429 10435 10442 10449 10454 10460 10467 10473 10479 10485 10492 10498 10503 10506 10508 10511 10518 10525 10528 10531 10536 10541 10543 10545 10547 10551 10555 10558 10561 10565 10567 10569 10572 10575 10577 10578 10580 10582 10583 10583 10584 10585 10586 10587 10589 10590 10591 10591 10591 10591 10592 10593 10592 10592 10591 10591 10591 10592 10592 10591
10299 10299 10300 10302 10305 10308 10311 10315 10319 10324 10329 10331 10334 10339 10345 10351 10357 10363 10370 10376 10382 10387 10392 10397 10403 10409 10415 10422 10429 10436 10443 10448 10452 10458 10465 10472 10479 10484 10490 10495 10499 10503 10507 10511 10517 10522 10525 10529 10533 10536 10538 10540 10544 10548 10552 10555 10558 10561 10563 10566 10569 10571 10572 10574 10575 10576 10576 10577 10579 10581 10582 10583 10584 10585 10586 10587 10587 10587 10587 10587 10587 10587 10588 10587 10587 10587 10588 10587
10295 10296 10298 10300 10303 10306 10310 10314 10319 10324 10327 10329 10333 10339 10345 10351 10357 10363 10369 10375 10380 10385 10391 10397 10402 10408 10415 10422 10429 10435 10441 10446 10450 10455 10462 10469 10476 10481 10486 10491 10495 10500 10505 10510 10514 10518 10521 10525 10529 10532 10534 10537 10542 10545 10548 10551 10554 10556 10558 10561 10564 10566 10568 10569 10570 10570 10571 10572 10574 10576 10578 10578 10578 10580 10581 10582 10582 10582 10582 10582 10583 10583 10583 10582 10583 10584 10583 10582
10291 10293 10296 10298 10301 10305 10310 10314 10319 10322 10324 10328 10333 10339 10346 10352 10358 10363 10369 10376 10381 10386 10391 10396 10402 10408 10415 10422 10429 10434 10439 10444 10449 10456 10463 10469 10474 10478 10482 10486 10491 10496 10502 10506 10510 10515 10518 10521 10525 10528 10529 10533 10539 10542 10544 10547 10549 10551 10554 10557 10559 10561 10562 10564 10565 10566 10567 10568 10570 10572 10573 10573 10573 10575 10577 10577 10577 10577 10578 10578 10578 10579 10578 10578 10579 10580 10579 10577
10289 10291 10294 10297 10300 10304 10309 10313 10316 10320 10323 10328 10334 10341 10348 10353 10359 10365 10371 10376 10381 10386 10390 10396 10402 10409 10415 10422 10428 10433 10438 10444 10450 10456 10463 10468 10472 10476 10480 10483 10488 10493 10498 10501 10505 10509 10512 10515 10519 10522 10525 10530 10536 10537 10539 10543 10545 10547 10550 10552 10554 10556 10558 10560 10561 10561 10562 10564 10566 10568 10568 10569 10569 10570 10571 10571 10571 10572 10572 10573 10573 10574 10574 10574 10574 10575 10574 10573
10287 10289 10292 10295 10299 10304 10309 10312 10315 10319 10324 10331 10337 10344 10350 10355 10360 10366 10372 10376 10380 10384 10390 10396 10403 10409 10416 10422 10426 10431 10437 10443 10448 10454 10459 10464 10469 10473 10477 10480 10485 10489 10494 10498 10501 10504 10506 10510 10514 10516 10520 10527 10530 10532 10535 10538 10541 10544 10546 10548 10550 10552 10554 10556 10556 10556 10558 10560 10562 10564 10564 10565 10565 10565 10566 10566 10566 10567 10567 10568 10569 10570 10570 10570 10569 10569 10569 10567
10284 10286 10290 10294 10299 10304 10309 10313 10317 10321 10327 10333 10340 10345 10350 10355 10359 10365 10370 10375 10379 10384 10390 10397 10403 10408 10414 10419 10424 10429 10435 10441 10445 10450 10455 10460 10465 10469 10473 10477 10481 10486 10490 10494 10497 10500 10502 10505 10508 10511 10517 10522 10525 10527 10531 10534 10537 10540 10542 10543 10545 10547 10548 10550 10551 10552 10554 10556 10557 10559 10559 10560 10560 10560 10561 10561 10561 10561 10562 10563 10565 10565 10565 10564 10563 10563 10563 10561
10282 10285 10289 10293 10298 10303 10308 10312 10318 10323 10329 10335 10341 10345 10350 10354 10359 10364 10369 10374 10380 10385 10390 10396 10402 10407 10412 10418 10423 10429 10434 10438 10442 10446 10451 10455 10459 10464 10468 10473 10477 10482 10486 10489 10492 10494 10497 10501 10504 10508 10514 10518 10520 10523 10527 10528 10532 10535 10537 10538 10539 10541 10543 10544 10546 10547 10549 10551 10552 10553 10554 10555 10555 10555 10556 10556 10555 10556 10557 10559 10560 10561 10561 10560 10558 10558 10557 10556
10281 10285 10289 10293 10298 10302 10307 10311 10317 10324 10331 10336 10341 10346 10351 10355 10359 10365 10370 10374 10379 10384 10388 10394 10400 10406 10412 10417 10422 10427 10432 10436 10440 10443 10447 10450 10454 10458 10462 10467 10471 10475 10479 10483 10486 10490 10493 10496 10498 10503 10508 10512 10514 10518 10520 10521 10524 10528 10531 10532 10534 10535 10537 10539 10541 10542 10544 10545 10546 10547 10548 10549 10550 10551 10551 10551 10550 10551 10553 10555 10556 10557 10557 10556 10554 10553 10552 10551
10280 10285 10290 10294 10299 10303 10307 10312 10319 10325 10332 10337 10343 10348 10352 10356 10360 10365 10370 10374 10378 10382 10387 10393 10399 10405 10410 10415 10420 10425 10429 10433 10437 10440 10444 10446 10450 10454 10458 10462 10465 10469 10474 10477 10480 10484 10487 10490 10493 10497 10501 10505 10509 10513 10515 10516 10519 10522 10524 10527 10528 10529 10531 10533 10535 10536 10538 10539 10540 10542 10543 10543 10545 10545 10545 10545 10545 10546 10549 10551 10552 10553 10552 10552 10550 10549 10548 10547
10280 10284 10288 10293 10298 10303 10309 10315 10321 10327 10333 10339 10345 10350 10353 10357 10361 10365 10369 10373 10377 10381 10386 10392 10397 10402 10406 10411 10416 10421 10425 10429 10434 10437 10441 10444 10447 10451 10454 10458 10461 10465 10469 10472 10475 10479 10482 10485 10488 10491 10495 10500 10504 10507 10509 10511 10513 10517 10519 10521 10523 10524 10526 10528 10530 10531 10532 10533 10535 10537 10538 10539 10539 10539 10539 10540 10540 10542 10544 10546 10548 10548 10548 10548 10546 10545 10543 10543
10279 10284 10288 10293 10298 10304 10311 10317 10322 10328 10334 10340 10345 10349 10352 10355 10358 10363 10367 10371 10374 10379 10385 10390 10395 10399 10404 10408 10413 10418 10421 10426 10430 10433 10437 10440 10443 10446 10450 10453 10457 10460 10464 10468 10471 10474 10478 10482 10485 10487 10490 10494 10497 10500 10503 10505 10508 10511 10513 10515 10517 10519 10521 10523 10525 10526 10528 10529 10530 10532 10533 10533 10533 10533 10534 10535 10535 10537 10539 10541 10543 10544 10544 10543 10542 10541 10539 10538
10279 10284 10289 10294 10300 10306 10312 10318 10323 10328 10333 10338 10342 10345 10346 10350 10355 10361 10366 10370 10374 10380 10385 10389 10393 10398 10403 10407 10411 10415 10418 10422 10425 10429 10432 10435 10438 10441 10444 10448 10452 10455 10459 10463 10466 10470 10474 10477 10481 10483 10485 10487 10490 10493 10496 10499 10502 10505 10508 10510 10511 10513 10515 10517 10519 10521 10523 10524 10525 10526 10527 10527 10527 10528 10529 10529 10529 10531 10534 10536 10538 10539 10539 10538 10537 10536 10534 10534
10280 10284 10289 10295 10301 10306 10311 10316 10321 10326 10331 10335 10338 10340 10343 10349 10356 10362 10366 10370 10375 10380 10385 10388 10392 10396 10400 10404 10407 10410 10413 10417 10420 10423 10426 10429 10432 10435 10438 10442 10446 10450 10454 10458 10462 10466 10469 10473 10476 10478 10479 10481 10484 10487 10491 10494 10497 10499 10502 10505 10506 10507 10509 10511 10513 10515 10517 10518 10520 10521 10521 10521 10522 10523 10524 10523 10524 10526 10529 10531 10533 10534 10534 10533 10532 10531 10530 10529
10280 10285 10290 10295 10300 10305 10310 10315 10320 10324 10329 10333 10336 10340 10345 10352 10358 10362 10365 10368 10373 10379 10382 10386 10389 10392 10396 10399 10402 10406 10409 10412 10415 10418 10421 10424 10427 10430 10433 10437 10441 10445 10450 10453 10457 10461 10464 10468 10472 10473 10474 10477 10478 10481 10484 10487 10490 10494 10496 10499 10500 10501 10502 10504 10507 10508 10511 10512 10514 10515 10515 10515 10516 10518 10518 10518 10518 10520 10523 10526 10528 10528 10528 10528 10528 10527 10526 10525